This is the latest recevied weather packets stored in our database for station/object AC4AG. If no packets are shown the sender has not sent any weather packets the latest 10 day(s).
| Time | Temp. | Humidity | Pressure | Rain* | Wind** | Luminosity | Snow |
|---|---|---|---|---|---|---|---|
| 1777472321 | 16.11° C | 99% | 1011 hPa | 0 mm | - | 100 W/m² | - |
| 1777472018 | 16.11° C | 99% | 1010.9 hPa | 0 mm | - | 70 W/m² | - |
| 1777471713 | 16.11° C | 99% | 1010.7 hPa | 0 mm | - | 91 W/m² | - |
| 1777471410 | 16.11° C | 99% | 1011 hPa | 0 mm | - | 87 W/m² | - |
| 1777471107 | 16.11° C | 99% | 1011 hPa | 0 mm | - | 78 W/m² | - |
| 1777470803 | 16.11° C | 99% | 1010.9 hPa | 0 mm | - | 98 W/m² | - |
| 1777470501 | 16.11° C | 99% | 1010.9 hPa | 0 mm | - | 70 W/m² | - |
| 1777470197 | 15.56° C | 99% | 1010.7 hPa | 0 mm | - | 67 W/m² | - |
| 1777469893 | 15.56° C | 99% | 1011 hPa | 0 mm | - | 66 W/m² | - |
| 1777469588 | 15.56° C | 99% | 1010.9 hPa | 0 mm | - | 63 W/m² | - |
| 1777469283 | 15.56° C | 99% | 1011 hPa | 0 mm | - | 110 W/m² | - |
| 1777468979 | 15.56° C | 99% | 1011.2 hPa | 0 mm | - | 138 W/m² | - |
| 1777468674 | 15.56° C | 99% | 1011.2 hPa | 0 mm | - | 129 W/m² | - |
| 1777468371 | 15.56° C | 99% | 1011.2 hPa | 0 mm | - | 121 W/m² | - |
| 1777468067 | 15.56° C | 99% | 1011.2 hPa | 0 mm | - | 100 W/m² | - |
| 1777467764 | 15.56° C | 99% | 1011 hPa | 0 mm | - | 94 W/m² | - |
| 1777467459 | 15.56° C | 99% | 1011.4 hPa | 0 mm | - | 95 W/m² | - |
| 1777467154 | 15.56° C | 99% | 1011.3 hPa | 0 mm | - | 161 W/m² | - |
| 1777466852 | 15.56° C | 99% | 1011.3 hPa | 0 mm | - | 136 W/m² | - |
| 1777466550 | 15° C | 99% | 1011.3 hPa | 0 mm | - | 79 W/m² | - |
| 1777466246 | 15° C | 99% | 1011.4 hPa | 0 mm | - | 75 W/m² | - |
| 1777465942 | 15° C | 99% | 1011.4 hPa | 0 mm | - | 45 W/m² | - |
| 1777465639 | 15° C | 99% | 1011.5 hPa | 0 mm | - | 93 W/m² | - |
| 1777465334 | 15° C | 99% | 1011.3 hPa | 0 mm | - | 54 W/m² | - |
| 1777465033 | 15° C | 99% | 1011.3 hPa | 0 mm | - | 75 W/m² | - |
* Rain latest hour (hover to see other rain measurements)
** Current wind speed in m/s (hover to see current wind gust speed)